Washington, VA

2:08 PM EDT on June 25, 2017 (GMT -0400)
Ronald Reagan Washington National

Weather History for KDCA - October, 2013

Change the Weather History Date:

Wednesday, October 16, 2013

  Actual Average Record
Temperature  
Mean Temperature 68 °F 59 °F  
Max Temperature 73 °F 68 °F 89 °F (1897)
Min Temperature 63 °F 50 °F 30 °F (1897)
Degree Days  
Heating Degree Days 0 6  
Month to date heating degree days 22 75  
Since 1 July heating degree days 31 99  
Cooling Degree Days 3 1  
Month to date cooling degree days 78 28  
Year to date cooling degree days 1712 1541  
Growing Degree Days 18 (Base 50)    
Moisture  
Dew Point 59 °F    
Average Humidity 78    
Maximum Humidity 87    
Minimum Humidity 68    
Precipitation  
Precipitation T in 0.11 in 1.38 in (2002)
Month to date precipitation 6.12 1.77  
Year to date precipitation 35.66 31.89  
Snow  
Snow 0.00 in 0.00 in - ()
Month to date snowfall 0.0 0.0  
Since 1 July snowfall 0.0 0.0  
Snow Depth 0.00 in    
Sea Level Pressure  
Sea Level Pressure 30.02 in    
Wind  
Wind Speed 5 mph (South)    
Max Wind Speed 10 mph    
Max Gust Speed 13 mph    
Visibility 10 miles    
Events Rain    
T = Trace of Precipitation, MM = Missing Value Source: NWS Daily Summary

Daily Weather History Graph

Daily Weather History Graph

Search for Another Location

Airport or City:

Trip Planner

Search our weather history database for the weather conditions in past years. The results will help you decide how hot, cold, wet, or windy it might be!

Date:

Astronomy

Oct. 16, 2013 Rise Set
Actual Time 7:18 AM EDT 6:27 PM EDT
Civil Twilight 6:51 AM EDT 6:54 PM EDT
Nautical Twilight 6:20 AM EDT 7:25 PM EDT
Astronomical Twilight 5:50 AM EDT 7:56 PM EDT
Moon 5:05 PM EDT (10/16) 4:45 AM EDT (10/16)
Length of Visible Light 12h 02m
Length of Day
11h 09m
Waxing Gibbous, 94% of the Moon is Illuminated
Oct 16
Waxing Gibbous
Oct 18
Full
Oct 26
Last Quarter
Nov 3
New
Nov 10
First Quarter

Hourly Weather History & Observations

Time (EDT) Temp. Dew Point Humidity Pressure Visibility Wind Dir Wind Speed Gust Speed Precip Events Conditions
12:11 AM 62.6 °F 57.2 °F 82% 30.10 in 10.0 mi Calm Calm - 0.00 in   Light Drizzle
12:52 AM 63.0 °F 57.9 °F 84% 30.09 in 10.0 mi Calm Calm - 0.00 in   Overcast
1:03 AM 62.6 °F 57.2 °F 82% 30.08 in 10.0 mi Calm Calm - N/A   Overcast
1:52 AM 63.0 °F 57.9 °F 84% 30.08 in 10.0 mi Calm Calm - N/A   Overcast
2:52 AM 63.0 °F 57.9 °F 84% 30.09 in 6.0 mi Calm Calm - 0.00 in Rain Light Rain
3:52 AM 64.0 °F 57.0 °F 78% 30.07 in 10.0 mi North 3.5 mph - 0.00 in   Overcast
4:52 AM 63.0 °F 57.0 °F 81% 30.07 in 10.0 mi North 3.5 mph - N/A   Overcast
5:52 AM 63.0 °F 57.0 °F 81% 30.06 in 10.0 mi ENE 5.8 mph - N/A   Overcast
6:52 AM 63.0 °F 55.9 °F 78% 30.06 in 10.0 mi Calm Calm - N/A   Overcast
7:52 AM 63.0 °F 57.0 °F 81% 30.06 in 10.0 mi ENE 3.5 mph - N/A   Overcast
8:28 AM 64.4 °F 55.4 °F 73% 30.07 in 10.0 mi Calm Calm - N/A   Overcast
8:52 AM 64.9 °F 57.0 °F 75% 30.07 in 10.0 mi NE 3.5 mph - N/A   Overcast
9:34 AM 64.4 °F 57.2 °F 77% 30.07 in 10.0 mi SSE 3.5 mph - N/A   Mostly Cloudy
9:52 AM 66.0 °F 57.9 °F 75% 30.07 in 10.0 mi Calm Calm - N/A   Overcast
10:24 AM 66.2 °F 57.2 °F 73% 30.06 in 10.0 mi South 4.6 mph - N/A   Overcast
10:52 AM 66.0 °F 59.0 °F 78% 30.05 in 10.0 mi South 4.6 mph - N/A   Overcast
11:13 AM 66.2 °F 59.0 °F 78% 30.05 in 10.0 mi South 4.6 mph - N/A   Overcast
11:52 AM 68.0 °F 59.0 °F 73% 30.04 in 10.0 mi SSE 4.6 mph - N/A   Overcast
12:52 PM 70.0 °F 60.1 °F 71% 30.01 in 10.0 mi SSW 6.9 mph - N/A   Overcast
1:46 PM 71.6 °F 60.8 °F 69% 29.99 in 10.0 mi South 6.9 mph - N/A   Overcast
1:52 PM 71.1 °F 60.1 °F 68% 29.99 in 10.0 mi South 6.9 mph - N/A   Overcast
2:26 PM 71.6 °F 60.8 °F 69% 29.98 in 10.0 mi South 8.1 mph - N/A   Overcast
2:52 PM 71.1 °F 61.0 °F 70% 29.97 in 10.0 mi South 9.2 mph - N/A   Overcast
3:52 PM 71.1 °F 61.0 °F 70% 29.97 in 10.0 mi South 6.9 mph - N/A   Overcast
4:52 PM 70.0 °F 61.0 °F 73% 29.95 in 10.0 mi South 10.4 mph - N/A   Overcast
5:52 PM 69.1 °F 61.0 °F 75% 29.96 in 10.0 mi South 8.1 mph - N/A   Overcast
6:11 PM 68.0 °F 60.8 °F 78% 29.95 in 10.0 mi South 6.9 mph - 0.00 in   Overcast
6:52 PM 68.0 °F 61.0 °F 78% 29.95 in 10.0 mi South 8.1 mph - 0.00 in   Mostly Cloudy
7:52 PM 66.9 °F 61.0 °F 81% 29.95 in 10.0 mi South 4.6 mph - N/A   Mostly Cloudy
8:52 PM 66.0 °F 61.0 °F 84% 29.96 in 10.0 mi South 4.6 mph - N/A   Scattered Clouds
9:52 PM 64.9 °F 61.0 °F 87% 29.96 in 10.0 mi SSW 6.9 mph - N/A   Mostly Cloudy
10:52 PM 64.0 °F 61.0 °F 90% 29.95 in 10.0 mi South 5.8 mph - N/A   Mostly Cloudy
11:52 PM 64.9 °F 61.0 °F 87% 29.93 in 10.0 mi South 5.8 mph - N/A   Overcast